Showing default

COSMOS 2273, 23004

Orbit data source: Space-Track

COSMOS 2273, 23004 is a payload satellite owned by VKS (CIS) in LEO that was launched on Sat, 12 Feb 1994 UTC via a TSIKLON-3 launch vehicle from the Plesetsk Missile And Space Complex (PKMTR). Payload-class satellites include a variety of spacecraft equipped with specific instruments for various scientific and technological missions. These include communications satellites like Starlink; space stations such as the ISS; scientific satellites like the Hubble; Earth observation satellites from companies like Planet Labs, Umbra, and HawkEye 360; GPS; miniature CubeSats for education and research; and military/defense satellites.

Loading next visibility...
Identifier
23004, 1994-011F
Orbit
LEO
Country
Flag of CISCIS
Related business
Manufacturer
NPO PM
Mission
Defense Communications
Bus & Motor
STRELA-3, Unknown motor
Mass
225 kg wet, 225 kg dry
Launch date (UTC)
1994-02-12 (32 years ago)
Launch vehicle
TSIKLON-3
Launch site
Plesetsk Missile And Space Complex (PKMTR)
Object type
Payload
Rocket body
Debris
Shape & HBR
Cyl, 0.8 m
Radar Cross Section
1.257 m², Medium (>0.1 m² and < 1m²)

Expand to show TLE details & history
Last TLE update: 21 hours ago

TLE from 21 hours ago
0 COSMOS 2273
1 23004U 94011F   25308.88683517  .00000009  00000-0 -65371-5 0  9995
2 23004  82.5713  98.3905 0004769 347.6878 167.5886 12.62911953462439
Epoch: 2025-11-04T21:17Z
TLE epoch observation values (Epoch: 2025-11-04T21:17:02.558Z)
Latitude
24.51481°
Longitude
-88.62962°
Altitude
1,417.396 km
Speed
7.152 km/s
True Right ascension
18h 19m 59s
True Declination
24° 23' 46"
Sunlit
Object was in daylight at epoch
Visualization orbit readout
Latitude
Unknown
Longitude
Unknown
Altitude
Unknown
Speed
Unknown
Apparent Right ascension
Unknown
Apparent Declination
Unknown
Sunlit
N/A
Visualization observer readout
Local Sidereal Time
14:44:35
Azimuth
Unknown
Elevation
Unknown
Doppler factor
Unknown
Orbital elements
Apogee altitude
1,411.982 km
Perigee altitude
1,404.555 km
Semi-major axis
7,786.405 km
Eccentricity
0.00048
Inclination
82.5713°
RAAN
98.3905°
Arg. of periapsis
347.6878°
True anomaly
167.60034°
Mean anomaly
167.5886°
Eccentric anomaly
167.59447°
Mean motion
3.15891 °/min
Orbital period
113.96 mins
BSTAR
-0.0000065371
Loading maneuver chart data...
Computing Atmospheric mass density...
Loading historical data...
Loading historical data...
Loading historical data...
Loading historical data...
Loading historical data...
Loading historical data...
Loading historical data...

Documentation

Showing up to 5 results
|